{"data":{"norad_id":53014,"epoch":"2026-09-19T16:19:00.204672Z","epoch_age_seconds":139639,"freshness":"FRESH","line1":"1 53014U 22076AE  26262.67986348 -.00000749  00000+0 -10570-4 0  9997","line2":"2 53014  53.1605 282.3055 0001273  83.0370 277.0778 15.35391994232413","mean_motion":15.35391994,"eccentricity":0.0001273,"inclination_deg":53.1605,"raan_deg":282.3055,"arg_perigee_deg":83.037,"mean_anomaly_deg":277.0778,"bstar":-1.057e-5,"rev_number":23241,"period_min":93.787124436445,"perigee_km":458.88594870788,"apogee_km":460.62687637071,"semimajor_km":6837.8934125393,"source":"CELESTRAK","updated_at":"2026-09-20T09:00:40.144738Z"}}